DLH458 EDDH-EDDM

Flight info

Callsign DLH458
Flight time 1h 1m
Altitude 35000
Route AMLUH2C/05 AMLUH M852 DENIX DCT ZUCKA DCT SODRO/N0476F310 T703 LULAR/N0466F300 T105 LANDU LANDU2A
Aircraft A346/H-SDE2E3FGHIJ3J4J5M1RWXY/LB1D1

Departure

Time 2026-05-06 13:50
Airport Hamburg Helmut Schmidt Airport (EDDH)

Arrival

Time 2026-05-06 14:51
Airport Munich Airport (EDDM)
Time Latitude Longitude Altitude Speed Heading
2026-05-06 13:21 53.62897 10.00202 57 ft 0 kts 124°
2026-05-06 13:37 53.62903 10.00186 49 ft 3 kts 121°
2026-05-06 13:37 53.62913 10.00158 49 ft 2 kts 122°
2026-05-06 13:37 53.62922 10.00137 57 ft 3 kts 135°
2026-05-06 13:37 53.62935 10.00121 49 ft 3 kts 159°
2026-05-06 13:38 53.62950 10.00116 49 ft 3 kts 184°
2026-05-06 13:38 53.62968 10.00122 49 ft 3 kts 199°
2026-05-06 13:38 53.62985 10.00134 49 ft 3 kts 207°
2026-05-06 13:38 53.63002 10.00151 49 ft 2 kts 212°
2026-05-06 13:39 53.63010 10.00159 49 ft 1 kts 212°
2026-05-06 13:39 53.63011 10.00160 49 ft 0 kts 212°
2026-05-06 13:41 53.63006 10.00155 49 ft 3 kts 212°
2026-05-06 13:42 53.62959 10.00105 49 ft 10 kts 212°
2026-05-06 13:42 53.62888 10.00043 50 ft 13 kts 212°
2026-05-06 13:42 53.62825 9.99924 49 ft 14 kts 214°
2026-05-06 13:42 53.62726 9.99876 53 ft 14 kts 200°
2026-05-06 13:43 53.62647 9.99769 51 ft 16 kts 244°
2026-05-06 13:43 53.62617 9.99573 52 ft 19 kts 258°
2026-05-06 13:43 53.62588 9.99340 52 ft 21 kts 261°
2026-05-06 13:43 53.62561 9.99079 52 ft 24 kts 259°
2026-05-06 13:44 53.62527 9.98784 53 ft 26 kts 259°
2026-05-06 13:44 53.62495 9.98503 50 ft 23 kts 259°
2026-05-06 13:44 53.62462 9.98231 49 ft 23 kts 254°
2026-05-06 13:44 53.62395 9.98019 47 ft 22 kts 230°
2026-05-06 13:45 53.62293 9.97815 47 ft 24 kts 230°
2026-05-06 13:45 53.62091 9.97405 47 ft 24 kts 230°
2026-05-06 13:45 53.61980 9.97183 51 ft 22 kts 231°
2026-05-06 13:46 53.61895 9.97010 53 ft 16 kts 230°
2026-05-06 13:46 53.61816 9.96850 48 ft 19 kts 230°
2026-05-06 13:46 53.61734 9.96686 48 ft 17 kts 229°
2026-05-06 13:46 53.61676 9.96526 51 ft 12 kts 264°
2026-05-06 13:47 53.61688 9.96456 51 ft 0 kts 313°
2026-05-06 13:48 53.61689 9.96456 51 ft 1 kts 314°
2026-05-06 13:48 53.61775 9.96416 54 ft 17 kts 357°
2026-05-06 13:48 53.61868 9.96464 50 ft 11 kts 41°
2026-05-06 13:49 53.61872 9.96470 50 ft 0 kts 44°
2026-05-06 13:49 53.61874 9.96473 51 ft 2 kts 45°
2026-05-06 13:49 53.62007 9.96734 51 ft 65 kts 51°
2026-05-06 13:49 53.62446 9.97622 49 ft 129 kts 50°
2026-05-06 13:50 53.63129 9.98997 200 ft 166 kts 47°
2026-05-06 13:50 53.63857 10.00466 1019 ft 164 kts 51°
2026-05-06 13:50 53.64591 10.01999 1828 ft 165 kts 48°
2026-05-06 13:50 53.65339 10.03512 2448 ft 174 kts 52°
2026-05-06 13:51 53.66138 10.05172 2908 ft 190 kts 52°
2026-05-06 13:51 53.66999 10.06944 3449 ft 201 kts 52°
2026-05-06 13:51 53.67919 10.08823 4079 ft 212 kts 51°
2026-05-06 13:51 53.68872 10.10747 4869 ft 215 kts 52°
2026-05-06 13:52 53.69833 10.12708 5661 ft 219 kts 56°
2026-05-06 13:52 53.70410 10.15077 6423 ft 221 kts 84°
2026-05-06 13:52 53.70226 10.17660 7181 ft 227 kts 111°
2026-05-06 13:52 53.69317 10.19866 7816 ft 243 kts 139°
2026-05-06 13:53 53.67747 10.21164 8309 ft 264 kts 162°
2026-05-06 13:53 53.65914 10.21976 8899 ft 280 kts 164°
2026-05-06 13:53 53.64006 10.22803 9559 ft 286 kts 164°
2026-05-06 13:53 53.62074 10.23645 9843 ft 287 kts 164°
2026-05-06 13:54 53.60137 10.24497 9873 ft 287 kts 164°
2026-05-06 13:54 53.58205 10.25352 9880 ft 287 kts 163°
2026-05-06 13:54 53.56276 10.26221 9877 ft 288 kts 163°
2026-05-06 13:54 53.54306 10.27106 10146 ft 299 kts 163°
2026-05-06 13:55 53.52240 10.28037 10716 ft 316 kts 164°
2026-05-06 13:55 53.50061 10.29018 11217 ft 333 kts 164°
2026-05-06 13:55 53.47760 10.30054 11680 ft 352 kts 164°
2026-05-06 13:55 53.45338 10.31143 12147 ft 368 kts 165°
2026-05-06 13:56 53.42840 10.32263 12948 ft 373 kts 165°
2026-05-06 13:56 53.40325 10.33398 13863 ft 376 kts 165°
2026-05-06 13:56 53.37784 10.34544 14638 ft 380 kts 166°
2026-05-06 13:56 53.35209 10.35703 15395 ft 385 kts 166°
2026-05-06 13:57 53.32608 10.36871 16161 ft 389 kts 166°
2026-05-06 13:57 53.29974 10.38051 16919 ft 394 kts 166°
2026-05-06 13:57 53.27314 10.39241 17681 ft 398 kts 167°
2026-05-06 13:57 53.24618 10.40445 18373 ft 403 kts 167°
2026-05-06 13:58 53.21893 10.41658 19011 ft 408 kts 167°
2026-05-06 13:58 53.19136 10.42884 19637 ft 412 kts 167°
2026-05-06 13:58 53.16353 10.44122 20267 ft 416 kts 166°
2026-05-06 13:58 53.13536 10.45344 20904 ft 420 kts 168°
2026-05-06 13:59 53.10663 10.46354 21502 ft 424 kts 171°
2026-05-06 13:59 53.07751 10.47253 22120 ft 428 kts 170°
2026-05-06 13:59 53.04810 10.48173 22708 ft 432 kts 170°
2026-05-06 13:59 53.01839 10.49101 23357 ft 436 kts 170°
2026-05-06 14:00 52.98835 10.50038 23894 ft 440 kts 170°
2026-05-06 14:00 52.95814 10.50976 24437 ft 442 kts 169°
2026-05-06 14:00 52.92782 10.51917 24992 ft 445 kts 169°
2026-05-06 14:00 52.89727 10.52864 25550 ft 448 kts 169°
2026-05-06 14:01 52.86653 10.53815 26075 ft 451 kts 169°
2026-05-06 14:01 52.83559 10.54771 26598 ft 454 kts 169°
2026-05-06 14:01 52.80446 10.55732 27114 ft 457 kts 169°
2026-05-06 14:01 52.77315 10.56696 27625 ft 459 kts 169°
2026-05-06 14:02 52.74162 10.57666 28150 ft 462 kts 169°
2026-05-06 14:02 52.71054 10.58620 28822 ft 460 kts 169°
2026-05-06 14:02 52.67923 10.59581 29627 ft 456 kts 169°
2026-05-06 14:02 52.64815 10.60537 30354 ft 452 kts 170°
2026-05-06 14:03 52.61716 10.61493 30986 ft 450 kts 171°
2026-05-06 14:03 52.58697 10.62421 31573 ft 449 kts 171°
2026-05-06 14:03 52.55574 10.63375 32166 ft 447 kts 172°
2026-05-06 14:03 52.52517 10.64304 32748 ft 446 kts 172°
2026-05-06 14:04 52.49461 10.65231 33322 ft 446 kts 172°
2026-05-06 14:04 52.46412 10.66152 33790 ft 447 kts 172°
2026-05-06 14:04 52.43351 10.67074 34123 ft 449 kts 173°
2026-05-06 14:04 52.40267 10.68001 34426 ft 451 kts 173°
2026-05-06 14:05 52.37169 10.68931 34745 ft 454 kts 173°
2026-05-06 14:05 52.34055 10.69867 34825 ft 456 kts 173°
2026-05-06 14:05 52.27809 10.71744 34828 ft 457 kts 173°
2026-05-06 14:06 52.21551 10.73623 34824 ft 457 kts 173°
2026-05-06 14:06 52.15304 10.75493 34818 ft 456 kts 173°
2026-05-06 14:07 52.09055 10.77358 34801 ft 456 kts 173°
2026-05-06 14:07 52.02889 10.79878 34785 ft 461 kts 162°
2026-05-06 14:08 51.96939 10.83889 34795 ft 461 kts 161°
2026-05-06 14:08 51.91025 10.87894 34795 ft 460 kts 161°
2026-05-06 14:09 51.85100 10.91841 34776 ft 460 kts 162°
2026-05-06 14:09 51.80153 10.95111 34786 ft 459 kts 162°
2026-05-06 14:10 51.73274 10.99643 34787 ft 459 kts 162°
2026-05-06 14:10 51.68307 11.02947 34781 ft 459 kts 161°
2026-05-06 14:11 51.62415 11.07025 34781 ft 459 kts 161°
2026-05-06 14:11 51.56544 11.11081 34773 ft 459 kts 161°
2026-05-06 14:12 51.50706 11.15083 34770 ft 459 kts 161°
2026-05-06 14:12 51.44825 11.19094 34761 ft 459 kts 161°
2026-05-06 14:13 51.39101 11.22983 34769 ft 460 kts 161°
2026-05-06 14:13 51.33192 11.26982 34766 ft 460 kts 161°
2026-05-06 14:14 51.27291 11.30966 34769 ft 460 kts 162°
2026-05-06 14:14 51.21398 11.34942 34769 ft 459 kts 161°
2026-05-06 14:15 51.15495 11.38916 34771 ft 459 kts 162°
2026-05-06 14:15 51.09614 11.42862 34769 ft 458 kts 162°
2026-05-06 14:16 51.03743 11.46791 34770 ft 457 kts 162°
2026-05-06 14:16 50.97875 11.50707 34767 ft 456 kts 162°
2026-05-06 14:17 50.92016 11.54605 34766 ft 456 kts 162°
2026-05-06 14:17 50.86140 11.58506 34763 ft 456 kts 162°
2026-05-06 14:18 50.80288 11.62380 34763 ft 456 kts 162°
2026-05-06 14:18 50.74426 11.66250 34762 ft 456 kts 162°
2026-05-06 14:19 50.68572 11.70104 34762 ft 456 kts 162°
2026-05-06 14:19 50.62710 11.73951 34767 ft 456 kts 162°
2026-05-06 14:20 50.56853 11.77781 34776 ft 456 kts 163°
2026-05-06 14:20 50.50990 11.81605 34785 ft 456 kts 163°
2026-05-06 14:21 50.45111 11.85429 34693 ft 456 kts 163°
2026-05-06 14:21 50.42227 11.87303 34390 ft 454 kts 163°
2026-05-06 14:21 50.39324 11.89192 34083 ft 450 kts 163°
2026-05-06 14:22 50.36403 11.91089 33772 ft 446 kts 163°
2026-05-06 14:22 50.33585 11.92911 33413 ft 443 kts 163°
2026-05-06 14:22 50.30736 11.94746 33057 ft 442 kts 163°
2026-05-06 14:22 50.27895 11.96574 32722 ft 442 kts 163°
2026-05-06 14:23 50.25050 11.98405 32355 ft 442 kts 163°
2026-05-06 14:23 50.22181 12.00252 32009 ft 442 kts 163°
2026-05-06 14:23 50.19339 12.02079 31657 ft 442 kts 163°
2026-05-06 14:23 50.16488 12.03910 31321 ft 443 kts 163°
2026-05-06 14:24 50.13634 12.05741 30984 ft 443 kts 163°
2026-05-06 14:24 50.10782 12.07569 30641 ft 444 kts 163°
2026-05-06 14:24 50.07920 12.09400 30306 ft 445 kts 163°
2026-05-06 14:24 50.05052 12.11232 29992 ft 446 kts 163°
2026-05-06 14:25 50.02180 12.13065 29633 ft 447 kts 163°
2026-05-06 14:25 49.99681 12.14657 29301 ft 447 kts 163°
2026-05-06 14:25 49.96797 12.16495 28924 ft 449 kts 163°
2026-05-06 14:25 49.93901 12.18337 28555 ft 450 kts 163°
2026-05-06 14:26 49.91004 12.20177 28199 ft 451 kts 162°
2026-05-06 14:26 49.88094 12.22021 27838 ft 452 kts 162°
2026-05-06 14:26 49.85193 12.23859 27489 ft 450 kts 162°
2026-05-06 14:26 49.82291 12.25702 27131 ft 448 kts 162°
2026-05-06 14:27 49.79424 12.27576 26818 ft 445 kts 161°
2026-05-06 14:27 49.76594 12.29552 26773 ft 447 kts 159°
2026-05-06 14:27 49.73820 12.31756 26767 ft 450 kts 156°
2026-05-06 14:27 49.71108 12.34192 26768 ft 452 kts 153°
2026-05-06 14:28 49.68445 12.36882 26768 ft 454 kts 151°
2026-05-06 14:28 49.65890 12.39770 26765 ft 456 kts 148°
2026-05-06 14:28 49.63364 12.42729 26761 ft 456 kts 148°
2026-05-06 14:28 49.60831 12.45678 26777 ft 456 kts 148°
2026-05-06 14:29 49.58298 12.48622 26721 ft 456 kts 148°
2026-05-06 14:29 49.55771 12.51556 26401 ft 453 kts 149°
2026-05-06 14:29 49.53260 12.54471 26142 ft 451 kts 149°
2026-05-06 14:29 49.50760 12.57366 25858 ft 448 kts 149°
2026-05-06 14:30 49.48272 12.60246 25604 ft 447 kts 149°
2026-05-06 14:30 49.45827 12.63086 25349 ft 445 kts 148°
2026-05-06 14:30 49.43428 12.66088 25104 ft 446 kts 145°
2026-05-06 14:30 49.41041 12.69113 24846 ft 439 kts 150°
2026-05-06 14:31 49.38397 12.71293 24594 ft 427 kts 164°
2026-05-06 14:31 49.35545 12.72347 24349 ft 417 kts 178°
2026-05-06 14:31 49.32680 12.72245 24098 ft 409 kts 191°
2026-05-06 14:31 49.29966 12.71058 23860 ft 405 kts 204°
2026-05-06 14:32 49.27406 12.69281 23635 ft 403 kts 205°
2026-05-06 14:32 49.24857 12.67497 23384 ft 402 kts 205°
2026-05-06 14:32 49.22315 12.65710 23093 ft 401 kts 205°
2026-05-06 14:32 49.19794 12.63915 22708 ft 399 kts 206°
2026-05-06 14:33 49.17289 12.62114 22300 ft 396 kts 206°
2026-05-06 14:33 49.14803 12.60328 21859 ft 393 kts 206°
2026-05-06 14:33 49.12335 12.58561 21420 ft 390 kts 206°
2026-05-06 14:33 49.09880 12.56806 20975 ft 387 kts 206°
2026-05-06 14:34 49.07449 12.55070 20525 ft 384 kts 206°
2026-05-06 14:34 49.05028 12.53343 20067 ft 381 kts 206°
2026-05-06 14:34 49.02635 12.51634 19628 ft 378 kts 206°
2026-05-06 14:34 49.00260 12.49937 19177 ft 375 kts 206°
2026-05-06 14:35 48.97895 12.48246 18726 ft 372 kts 206°
2026-05-06 14:35 48.95554 12.46573 18285 ft 369 kts 206°
2026-05-06 14:35 48.93239 12.44924 17803 ft 366 kts 206°
2026-05-06 14:35 48.90940 12.43289 17309 ft 363 kts 206°
2026-05-06 14:36 48.88668 12.41675 16869 ft 359 kts 206°
2026-05-06 14:36 48.86416 12.40076 16434 ft 356 kts 206°
2026-05-06 14:36 48.84177 12.38488 15987 ft 353 kts 206°
2026-05-06 14:36 48.81961 12.36923 15550 ft 351 kts 205°
2026-05-06 14:37 48.79740 12.35529 15137 ft 349 kts 202°
2026-05-06 14:37 48.77449 12.34332 14710 ft 348 kts 199°
2026-05-06 14:37 48.75120 12.33348 14299 ft 347 kts 197°
2026-05-06 14:37 48.72789 12.32442 13857 ft 345 kts 197°
2026-05-06 14:38 48.70456 12.31531 13435 ft 343 kts 197°
2026-05-06 14:38 48.68174 12.30646 13244 ft 332 kts 197°
2026-05-06 14:38 48.65969 12.29800 13117 ft 318 kts 196°
2026-05-06 14:38 48.63841 12.28983 13002 ft 307 kts 197°
2026-05-06 14:39 48.61924 12.27744 12828 ft 297 kts 216°
2026-05-06 14:39 48.60468 12.25577 12713 ft 297 kts 234°
2026-05-06 14:39 48.59584 12.22660 12725 ft 314 kts 254°
2026-05-06 14:39 48.59337 12.19349 12743 ft 319 kts 264°
2026-05-06 14:40 48.59211 12.15992 12740 ft 319 kts 264°
2026-05-06 14:40 48.59091 12.12637 12718 ft 320 kts 264°
2026-05-06 14:40 48.58971 12.09270 12458 ft 321 kts 264°
2026-05-06 14:40 48.58857 12.06126 12026 ft 319 kts 264°
2026-05-06 14:41 48.58734 12.02801 11645 ft 315 kts 264°
2026-05-06 14:41 48.58610 11.99503 11258 ft 313 kts 264°
2026-05-06 14:41 48.58485 11.96220 10891 ft 310 kts 264°
2026-05-06 14:41 48.58361 11.92980 10526 ft 308 kts 264°
2026-05-06 14:42 48.58236 11.89762 10164 ft 305 kts 264°
2026-05-06 14:42 48.58113 11.86589 9938 ft 296 kts 264°
2026-05-06 14:42 48.57997 11.83586 9878 ft 279 kts 264°
2026-05-06 14:42 48.57884 11.80727 9827 ft 274 kts 264°
2026-05-06 14:43 48.57767 11.77824 9671 ft 272 kts 264°
2026-05-06 14:43 48.57652 11.74999 9324 ft 272 kts 264°
2026-05-06 14:43 48.57535 11.72154 8999 ft 270 kts 264°
2026-05-06 14:43 48.57419 11.69334 8685 ft 267 kts 264°
2026-05-06 14:44 48.57305 11.66545 8394 ft 265 kts 264°
2026-05-06 14:44 48.57188 11.63769 8098 ft 263 kts 262°
2026-05-06 14:44 48.56678 11.61169 7759 ft 258 kts 236°
2026-05-06 14:45 48.53834 11.58220 7174 ft 252 kts 195°
2026-05-06 14:45 48.52153 11.57492 6894 ft 252 kts 195°
2026-05-06 14:45 48.50468 11.56770 6601 ft 251 kts 195°
2026-05-06 14:45 48.48795 11.56045 6299 ft 250 kts 195°
2026-05-06 14:46 48.47122 11.55315 6028 ft 251 kts 195°
2026-05-06 14:46 48.45446 11.54579 5753 ft 250 kts 195°
2026-05-06 14:46 48.43771 11.53841 5470 ft 251 kts 195°
2026-05-06 14:46 48.42138 11.53122 5336 ft 242 kts 195°
2026-05-06 14:47 48.40567 11.52430 5290 ft 230 kts 194°
2026-05-06 14:47 48.39034 11.51759 5171 ft 229 kts 194°
2026-05-06 14:47 48.37488 11.51221 5018 ft 228 kts 177°
2026-05-06 14:47 48.35995 11.51856 5004 ft 226 kts 144°
2026-05-06 14:48 48.34966 11.53613 4789 ft 226 kts 112°
2026-05-06 14:48 48.34657 11.55924 4421 ft 228 kts 90°
2026-05-06 14:48 48.34787 11.58315 4070 ft 229 kts 81°
2026-05-06 14:48 48.35036 11.60684 3752 ft 229 kts 81°
2026-05-06 14:49 48.35247 11.63027 3432 ft 220 kts 82°
2026-05-06 14:49 48.35413 11.65240 3093 ft 205 kts 83°
2026-05-06 14:49 48.35563 11.67315 2768 ft 192 kts 83°
2026-05-06 14:49 48.35707 11.69239 2496 ft 176 kts 82°
2026-05-06 14:50 48.35847 11.71020 2276 ft 162 kts 80°
2026-05-06 14:50 48.35962 11.72652 2021 ft 153 kts 80°
2026-05-06 14:50 48.36084 11.74271 1891 ft 153 kts 82°
2026-05-06 14:50 48.36201 11.75874 1661 ft 152 kts 80°
2026-05-06 14:51 48.36339 11.77483 1483 ft 138 kts 84°
2026-05-06 14:51 48.36419 11.78591 1491 ft 81 kts 83°
2026-05-06 14:51 48.36447 11.79201 1485 ft 34 kts 98°
2026-05-06 14:51 48.36397 11.79443 1486 ft 23 kts 114°
2026-05-06 14:52 48.36332 11.79676 1488 ft 25 kts 114°
2026-05-06 14:52 48.36224 11.79775 1488 ft 12 kts 193°
2026-05-06 14:52 48.36209 11.79689 1479 ft 11 kts 273°
2026-05-06 14:52 48.36213 11.79563 1485 ft 13 kts 267°
2026-05-06 14:53 48.36151 11.79477 1487 ft 15 kts 180°
2026-05-06 14:53 48.36034 11.79490 1486 ft 18 kts 174°
2026-05-06 14:53 48.35914 11.79465 1485 ft 15 kts 231°
2026-05-06 14:53 48.35821 11.79394 1484 ft 17 kts 177°
2026-05-06 14:54 48.35692 11.79413 1486 ft 20 kts 174°
2026-05-06 14:54 48.35547 11.79439 1482 ft 22 kts 173°
2026-05-06 14:54 48.35422 11.79461 1486 ft 18 kts 173°
2026-05-06 14:54 48.35289 11.79483 1481 ft 21 kts 173°
2026-05-06 14:55 48.35197 11.79500 1490 ft 2 kts 178°
2026-05-06 14:55 48.35180 11.79491 1482 ft 3 kts 221°
2026-05-06 14:55 48.35169 11.79442 1491 ft 7 kts 257°
2026-05-06 14:55 48.35163 11.79388 1488 ft 5 kts 263°
2026-05-06 14:56 48.35162 11.79371 1485 ft 1 kts 264°
2026-05-06 14:56 48.35161 11.79366 1484 ft 0 kts 264°